Flag for Germany Weather past 2 weeks in Rheine, North Rhine-Westphalia, Germany

Now
37 °F

Chilly.


Feels Like: 35 °F
Forecast: 38 / 57 °F
Wind: 3 mph from South

Location: Rheine-Bentlage

Current Time: Mar 7, 2015 at 6:12:54 AM

Latest Report: Mar 7, 2015 at 5:20 AM


Visibility: N/A

Pressure: 30.42 "Hg

Humidity: 87%

Dew point: 34 °F

Location of RheineLocation

Historic Weather in Rheine — Graph

°F

Rheine temperature yesterday

Maximum temperature yesterday: 46 °F (at 2:20 PM)
Minimum temperature yesterday: 37 °F (at 10:20 PM)
Average temperature yesterday: 43 °F

Past Weeks' High & Low Weather Summary

 TemperatureHumidityPressure
High52 °F (Mar 1, 12:20 PM)100% (Feb 21, 9:20 PM)30.60 "Hg (Feb 21, 9:20 PM)
Low30 °F (Feb 28, 5:20 AM)50% (Feb 28, 4:20 PM)29.30 "Hg (Feb 21, 5:20 AM)
Average40 °F82%29.85 "Hg
* Reported Feb 20 4:20 AM — Mar 7 4:20 AM, Rheine, Weather by CustomWeather, © 2015

Note: Actual official high and low records may vary slightly from our data, if they occured in-between our weather recording intervals... More about our weather records

Advertising

Rheine weather history for previous 24 hours

 ConditionsComfort  
Time TempWeatherWind HumidityBarometerVisibility
4:20 AM
Sat, Mar 7
37 °FChilly.5 mph87%30.42 "HgN/A
3:20 AM37 °FChilly.5 mph87%30.45 "HgN/A
2:20 AM37 °FChilly.5 mph87%30.45 "HgN/A
1:20 AM39 °FChilly.3 mph81%30.48 "HgN/A
12:20 AM37 °FChilly.2 mph87%30.48 "HgN/A
11:20 PM
Fri, Mar 6
39 °FChilly.3 mph81%30.51 "HgN/A
10:20 PM37 °FChilly.1 mph87%30.51 "HgN/A
9:20 PM41 °FQuite cool.2 mph76%30.51 "HgN/A
8:20 PM41 °FQuite cool.2 mph81%30.51 "HgN/A
7:20 PM45 °FQuite cool.3 mph76%30.51 "HgN/A
6:20 PM45 °FQuite cool.3 mph76%30.54 "HgN/A
5:20 PM46 °FCool.7 mph71%30.54 "HgN/A
4:20 PM46 °FCool.7 mph71%30.51 "HgN/A
3:20 PM46 °FCool.7 mph71%30.54 "HgN/A
2:20 PM46 °FCool.7 mph71%30.54 "HgN/A
1:20 PM45 °FQuite cool.6 mph76%30.54 "HgN/A
12:20 PM43 °FQuite cool.5 mph81%30.57 "HgN/A
11:20 AM43 °FPartly sunny.6 mph81%30.57 "HgN/A
10:20 AM41 °FPartly sunny.5 mph81%30.57 "HgN/A
9:20 AM41 °FPartly sunny.6 mph81%30.57 "HgN/A
8:20 AM41 °FPartly sunny.5 mph81%30.57 "HgN/A
7:20 AM41 °FPartly sunny.5 mph81%30.57 "Hg6 mi
Weather by CustomWeather, © 2015

See weather overviewHow to use our weather pages